Weather History for KCDJ - September, 2013

Change the Weather History Date:

Saturday, September 28, 2013

  Actual Average (KIRK) Record (KIRK)
Temperature  
Mean Temperature 62 °F 59 °F  
Max Temperature 72 °F 71 °F - ()
Min Temperature 50 °F 48 °F - ()
Degree Days  
Heating Degree Days 4 7  
Month to date heating degree days 85  
Since 1 July heating degree days 92  
Cooling Degree Days 0 1  
Month to date cooling degree days 79  
Year to date cooling degree days 923  
Growing Degree Days 12 (Base 50)    
Moisture  
Dew Point 58 °F    
Average Humidity 82    
Maximum Humidity 93    
Minimum Humidity 70    
Precipitation  
Precipitation 0.49 in 0.10 in - ()
Month to date precipitation 3.91  
Year to date precipitation 31.32  
Sea Level Pressure  
Sea Level Pressure 29.93 in    
Wind  
Wind Speed 7 mph (South)    
Max Wind Speed 12 mph    
Max Gust Speed 22 mph    
T = Trace of Precipitation, MM = Missing Value Source: NWS Daily Summary

Daily Weather History Graph

Daily Weather History Graph

Search for Another Location

Airport or City:

Trip Planner

Search our weather history database for the weather conditions in past years. The results will help you decide how hot, cold, wet, or windy it might be!

Date:

Astronomy

Sep. 28, 2013 Rise Set
Actual Time 7:07 AM CDT 7:01 PM CDT
Civil Twilight 6:40 AM CDT 7:28 PM CDT
Nautical Twilight 6:09 AM CDT 7:59 PM CDT
Astronomical Twilight 5:37 AM CDT 8:30 PM CDT
Moon 12:56 AM CDT (9/28) 3:19 PM CDT (9/28)
Length of Visible Light 12h 47m
Length of Day
11h 53m
Waning Crescent, 36% of the Moon is Illuminated
Sep 28
Waning Crescent
Oct 4
New
Oct 11
First Quarter
Oct 18
Full
Oct 26
Last Quarter

Hourly Weather History & Observations

Time (CDT) Temp. Dew Point Humidity Pressure Visibility Wind Dir Wind Speed Gust Speed Precip Events Conditions
12:52 AM 72.0 °F 63.0 °F 73% 29.86 in - SSE 8.1 mph - N/A   Unknown
1:52 AM 71.1 °F 62.1 °F 73% 29.86 in - SSE 6.9 mph - N/A   Unknown
2:52 AM 71.1 °F 62.1 °F 73% 29.85 in - SSE 9.2 mph 21.9 mph N/A   Unknown
3:52 AM 70.0 °F 62.1 °F 76% 29.85 in - SSE 8.1 mph - N/A   Unknown
4:52 AM 70.0 °F 61.0 °F 73% 29.85 in - SSE 10.4 mph - N/A   Unknown
5:52 AM 70.0 °F 61.0 °F 73% 29.84 in - SSE 9.2 mph - N/A   Unknown
6:52 AM 70.0 °F 61.0 °F 73% 29.84 in - SSE 8.1 mph - N/A   Unknown
7:52 AM 71.1 °F 61.0 °F 70% 29.83 in - SSE 8.1 mph - N/A   Unknown
8:52 AM 71.1 °F 62.1 °F 73% 29.86 in - South 9.2 mph - N/A   Unknown
9:52 AM 68.0 °F 64.0 °F 87% 29.88 in - South 11.5 mph 19.6 mph 0.32 in   Unknown
10:52 AM 69.1 °F 64.9 °F 87% 29.88 in - South 10.4 mph - 0.10 in   Unknown
11:52 AM 69.1 °F 64.9 °F 87% 29.88 in - South 10.4 mph - 0.02 in   Unknown
12:52 PM 69.1 °F 66.0 °F 90% 29.89 in - South 9.2 mph - 0.02 in   Unknown
1:52 PM 60.1 °F 57.0 °F 90% 29.94 in - WNW 8.1 mph - N/A   Unknown
2:52 PM 60.1 °F 57.0 °F 90% 29.94 in - North 3.5 mph - 0.02 in   Unknown
3:52 PM 61.0 °F 55.9 °F 83% 29.96 in - Variable 6.9 mph - 0.01 in   Unknown
4:52 PM 62.1 °F 55.9 °F 80% 29.99 in - Variable 6.9 mph - N/A   Unknown
5:52 PM 63.0 °F 55.0 °F 75% 30.00 in - Variable 3.5 mph - N/A   Unknown
6:52 PM 60.1 °F 55.9 °F 86% 30.01 in - Calm Calm - N/A   Unknown
7:52 PM 57.0 °F 54.0 °F 89% 30.02 in - Calm Calm - N/A   Unknown
8:52 PM 54.0 °F 51.1 °F 90% 30.04 in - Calm Calm - N/A   Unknown
9:52 PM 53.1 °F 50.0 °F 89% 30.06 in - Calm Calm - N/A   Unknown
10:52 PM 51.1 °F 48.9 °F 92% 30.08 in - Calm Calm - N/A   Unknown
11:52 PM 50.0 °F 48.0 °F 93% 30.09 in - Calm Calm - N/A   Unknown